Regional Weather Roundup
Issued by NWS Grand Forks, ND

Home | Current Version | Previous Version | Text Only | Print | Product List | Glossary Off
Versions: 1 2 3 4 5 6 7 8 9 10 11 12 13 14 15 16 17 18 19 20 21 22 23 24 25 26 27 28 29 30 31 32 33 34 35 36 37 38 39 40 41 42 43 44 45 46 47 48 49 50

000
ASUS43 KFGF 240431
RWRFGF
PRAIRIE TO PINES  WEATHER ROUNDUP
NATIONAL WEATHER SERVICE EASTERN NORTH DAKOTA/GRAND FORKS ND
1100 PM CDT TUE JUL 23 2019

 **SATELLITE DATA USED TO AUGMENT SKY COVER AT AUTOMATED STATIONS**
 *****  WEATHER ACROSS EASTERN NORTH DAKOTA  *****

CITY           SKY/WX    TMP DP  RH WIND       PRES   REMARKS
GRAND FORKS    MOCLDY    67  61  81 S7        30.12F
GRAND FRKS AFB PTCLDY    65  62  91 S6        30.13F
GRAND FRKS NWS   N/A     71  63  76 S3        30.09S
DEVILS LAKE    FAIR      69  58  67 S7        30.15S
FARGO          FAIR      68  60  75 S3        30.15S
WAHPETON ARPT  FAIR      66  59  77 CALM      30.17S
$$

 ***** WEATHER ACROSS CENTRAL AND WESTERN NORTH DAKOTA  *****

CITY           SKY/WX    TMP DP  RH WIND       PRES   REMARKS
BISMARCK       FAIR      68  62  81 SE6       30.13S
MINOT          FAIR      71  61  70 SE7       30.09S
JAMESTOWN      FAIR      64  59  83 S7        30.16S
MINOT AFB      FAIR      66  61  83 SE7       30.08S
GARRISON         N/A     67  63  87 SE6       30.10F
WILLISTON      FAIR      79  65  62 SE9G20    30.02F
DICKINSON      FAIR      69  63  81 SE13      30.10S
HETTINGER      FAIR      69  59  70 SE10      30.13R
$$

 *****  OTHER AIRPORT OBSERVATIONS IN OUR AREA  *****

CITY           SKY/WX    TMP DP  RH WIND       PRES   REMARKS
WALHALLA       FAIR      63  63 100 CALM      30.11F
GRAFTON AIRPOR FAIR      64  61  88 S7        30.14R
VALLEY CITY AR FAIR      64  63  94 S5        30.18S
CANDO          FAIR      63  63 100 S6        30.16S
CAVALIER APRT  FAIR      63  59  88 CALM      30.11S
GWINNER          N/A     66  66 100 CALM      30.17F
SHEYENNE NWR     N/A     64  62  94 CALM      29.95
ROLLA          FAIR      61  61 100 SW6       30.15S
 ***** THE ABOVE OBSERVATIONS ARE NON NWS ARE NOT QUALITY
       CONTROLLED AND MAY MIS-REPORT RAIN FOR SNOW...
$$

  *****  WEATHER ACROSS NORTHERN MINNESOTA  *****

CITY           SKY/WX    TMP DP  RH WIND       PRES   REMARKS
FLAG ISLAND      N/A     73  55  53 W8        30.11S
WARROAD        FAIR      66  63  88 SW3       30.14S
ROSEAU         FAIR      66  61  82 W3        30.14S
HALLOCK        FAIR      63  61  94 SE7       30.12S
THF RVR FALLS  NOT AVBL
BAUDETTE       FAIR      67  58  72 W3        30.14R
WASKISH          N/A     72  63  73 W5        30.15S
CROOKSTON      FAIR      64  61  88 SE7       30.14S
STEPHEN NDAWN    N/A     64  57  77 S3          N/A
GREENBUSH NDAW   N/A     61  57  88 S3          N/A
$$
  *****  WEATHER ACROSS CENTRAL AND WEST MINNESOTA  *****

CITY           SKY/WX    TMP DP  RH WIND       PRES   REMARKS
FOSSTON        FAIR      57  46  67 CALM      30.17S
BEMIDJI        FAIR      63  57  81 CALM      30.17S
PARK RAPIDS    FAIR      64  59  83 CALM      30.18S
ELBOW LAKE     NOT AVBL
WADENA         FAIR      61  61 100 CALM      30.18F
DETROIT LAKES  FAIR      66  63  88 CALM      30.19F
MOORHEAD       FAIR      68  63  83 CALM      30.16S
FERGUS FALLS   FAIR      70  61  73 CALM      30.17S
MORRIS MN      FAIR      66  66 100 CALM      30.13S
STAPLES        FAIR      64  57  77 CALM      30.18S
$$
  *****  WEATHER ELSEWHERE ACROSS MINNESOTA  *****

CITY           SKY/WX    TMP DP  RH WIND       PRES   REMARKS
DULUTH         FAIR      68  58  70 NW5       30.15R
INTRNTL FALLS  FAIR      63  61  93 CALM      30.12S
ELY            FAIR      61  59  94 CALM      30.13F
CLOQUET        FAIR      63  57  82 W6        30.15S
WHEATON        FAIR      64  57  77 SE3       30.19S
BRAINERD       FAIR      65  59  81 CALM      30.17S
HIBBING        FAIR      60  57  89 NW3       30.14F
ALEXANDRIA     FAIR      68  61  78 CALM      30.21R
SAINT CLOUD    FAIR      63  59  87 CALM      30.16S
MINNEAPOLIS    MOCLDY    72  59  63 CALM      30.16S
$$

  *****  WEATHER ACROSS SOUTH DAKOTA  *****

CITY           SKY/WX    TMP DP  RH WIND       PRES   REMARKS
SIOUX FALLS    MOCLDY    68  57  68 S3        30.22R
BROOKINGS      FAIR      67  60  78 CALM      30.22R
WATERTOWN      FAIR      67  58  72 CALM      30.20F
HURON          FAIR      67  58  72 SE7       30.18S
SISSETON         N/A     64  61  90 SW3       30.17S
ABERDEEN       FAIR      64  60  87 SE3       30.18S
MITCHELL       FAIR      67  58  72 SE7       30.20R
PIERRE         FAIR      67  60  78 SE8       30.13S
MOBRIDGE       FAIR      68  60  75 SE9       30.12F
RAPID CITY     FAIR      69  63  81 E3        30.12S
$$

  *****  SOME WEATHER IN NEARBY STATES *****

CITY           SKY/WX    TMP DP  RH WIND       PRES   REMARKS
GLASGOW MT     FAIR      76  60  57 E12       29.97F
GREAT FALLS MT FAIR      74  52  46 NE8       30.02F
CHEYENNE WY    FAIR      71  51  49 SE7       30.31R
SCOTTSBLUFF NE FAIR      73  61  65 E9        30.17R
OMAHA NE       MOCLDY    69  61  75 E3        30.21R
DES MOINES IA  FAIR      70  58  65 NW5       30.19R
DAVENPORT IA   FAIR      68  59  73 NW5       30.16S
CHICAGO IL     FAIR      68  56  65 E3        30.12S
EAU CLAIRE WI  FAIR      66  59  78 CALM      30.13S
LA CROSSE WI   FAIR      71  60  68 CALM      30.14S
$$

  *****  SOME NATIONAL WEATHER *****

CITY           SKY/WX    TMP DP  RH WIND       PRES   REMARKS
LA GUARDIA NY  CLOUDY    70  65  84 NE7       29.88F
RALEIGH NC     MOCLDY    64  63  96 NW3       29.93F
ATLANTA GA     FAIR      74  65  73 E10       29.99R
NEW ORLEANS LA CLOUDY    79  71  76 NE9       29.97F
OKLAHOMA CITY  FAIR      73  53  49 NE6       30.18R
ALBUQUERQUE NM MOCLDY    78  55  44 S7        30.30R
SALT LAKE CITY MOCLDY    87  53  31 W15       30.11R
LOS ANGELES CA FAIR      70  63  78 W8        29.95R
BOISE ID       FAIR      81  55  40 E9        29.99F
SEATTLE WA     MOCLDY    66  49  54 SW8       30.09R
$$

*** WEATHER ACROSS MANITOBA...SASKATCHEWAN AND ONTARIO ***
                ***ONTARIO***

CITY           SKY/WX    TMP DP  RH WIND       PRES   REMARKS
GERALDTON      CLEAR     64  57  77 W7        30.01S
THUNDER BAY    PTCLDY    63  59  88 SW5       30.06F
SIOUX LOOKOUT  PTCLDY    70  59  68 W5        30.07S
TORONTO        PTCLDY    66  50  55 NE8       29.98R
BIG TROUT LK   MOCLDY    63  57  82 NE5       29.97R
PICKLE LAKE    NOT AVBL
DRYDEN         CLEAR     68  61  77 W6        30.09S
KENORA         PTCLDY    73  57  56 W5        30.12S
$$
                *** MANITOBA***

CITY           SKY/WX    TMP DP  RH WIND       PRES   REMARKS
BRANDON        PTCLDY    70  61  73 SE5       30.10S
DAUPHIN        CLEAR     63  61  94 SW3       30.06S
ISLAND LAKE    NOT AVBL
PILOT MOUND      N/A     61  59  94 S7          N/A
THE PAS        CLEAR     70  59  68 CALM      29.98S
THOMPSON       PTCLDY    75  59  57 E5        29.91S
WINNIPEG       MOCLDY    72  63  73 SW5       30.10S
CHURCHILL      PTCLDY    50  45  81 S12       30.01S
GILLAM         CLOUDY    55  43  62 SE5       30.00S
$$
                ***SASKATCHEWAN***

CITY           SKY/WX    TMP DP  RH WIND       PRES   REMARKS
ESTEVAN        PTCLDY    68  63  83 E10       30.05F
KINDERSLEY     PTCLDY    75  66  73 SE10      29.91F
LLOYDMINSTER   PTCLDY    75  70  83 S8        29.93R
PRINCE ALBERT  PTCLDY    70  66  88 SE7       29.99S
REGINA         MOCLDY    72  59  64 SE15G21   30.02F
YORKTON        CLEAR     68  61  77 S7        30.06S
N. BATTLEFORD  CLEAR     72  66  83 SE10      29.94F
LA RONGE       PTCLDY    77  59  53 S5        29.94S
SASKATOON      PTCLDY    75  61  60 SE14      29.98R
SWIFT CURRENT  CLEAR     70  63  78 SE10      29.99S
$$
NOTE: THESE ARE AUTOMATED STATIONS WITH LIMITED QUALITY CONTROL
      "FAIR" INDICATES FEW OR NO CLOUDS BELOW 12,000 FEET WITH NO
      SIGNIFICANT WEATHER AND/OR OBSTRUCTIONS TO VISIBILITY.
      SKY/WX - SKY CONDITION AND SIGNIFICANT WEATHER.
      TMP - AIR TEMPERATURE.    DP   - DEWPOINT TEMPERATURE.
      RH  - RELATIVE HUMIDITY.  PRES - PRESSURE.
      HX  - HEAT INDEX.         WCI  - WIND CHILL INDEX.
$



USA.gov is the U.S. government's official web portal to all federal, state and local government web resources and services.